Location: Island Grove Observatory.
(44.2333°N, 79.4500°W)
Time: 12:19:38
(UTC-05:00)

N. Korean satellite - Pass Details

Date: 01 December 2021
Orbit: 447 x 491 km, 97.3° (Epoch: 23 January)

Event Time Altitude Azimuth Distance (km) Brightness Sun altitude
Rises 05:58:51 0° 5° (N) 2,473 10.1 -16.5°
Reaches altitude 10° 06:00:57 10° 359° (N) 1,591 9.0 -16.1°
Maximum altitude 06:04:12 43° 287° (WNW) 640 6.7 -15.5°
Drops below altitude 10° 06:07:24 10° 214° (SW) 1,569 9.0 -15.0°
Sets 06:09:28 0° 208° (SSW) 2,435 10.0 -14.6°
